Terminal Aerodrome Forecast
Issued by NWS

Home | Current Version | Previous Version | Text Only | Print | Product List | Glossary On
Versions: 1 2 3 4 5 6 7 8 9 10 11 12 13 14 15 16 17 18 19 20 21 22 23 24 25 26 27 28 29 30 31
000
FTUS41 KBUF 202300
TAFIAG
TAF
KIAG 202333Z 2100/2124 20009KT 6SM -SHRA OVC035
     FM210200 19008KT 6SM -SHRA OVC025
     FM210900 VRB03KT 5SM -SHRA OVC012
     FM211200 01004KT 3SM -SHRA OVC006
     FM212000 03013KT 5SM -SHRA OVC007
     FM212300 03014KT 5SM -SHRA OVC012=

USA.gov is the U.S. government's official web portal to all federal, state and local government web resources and services.